segment_id,date_local,uptime,ped_lft,ped_rgt,ped_total,bike_lft,bike_rgt,bike_total,car_lft,car_rgt,car_total,heavy_lft,heavy_rgt,heavy_total,v85,car_speed0,car_speed10,car_speed20,car_speed30,car_speed40,car_speed50,car_speed60,car_speed70
100024661,2018-08-01 00:00,1.0,,,,118,86,204,,,,,,,
100024661,2018-08-01 01:00,1.0,,,,58,50,108,,,,,,,
100024661,2018-08-01 02:00,1.0,,,,27,22,49,,,,,,,
100024661,2018-08-01 03:00,1.0,,,,17,14,31,,,,,,,
100024661,2018-08-01 04:00,1.0,,,,12,14,26,,,,,,,
100024661,2018-08-01 05:00,1.0,,,,31,35,66,,,,,,,
100024661,2018-08-01 06:00,1.0,,,,73,150,223,,,,,,,
100024661,2018-08-01 07:00,1.0,,,,179,350,529,,,,,,,
100024661,2018-08-01 08:00,1.0,,,,509,750,1259,,,,,,,
100024661,2018-08-01 09:00,1.0,,,,512,685,1197,,,,,,,
100024661,2018-08-01 10:00,1.0,,,,244,275,519,,,,,,,
100024661,2018-08-01 11:00,1.0,,,,204,193,397,,,,,,,
100024661,2018-08-01 12:00,1.0,,,,243,177,420,,,,,,,
100024661,2018-08-01 13:00,1.0,,,,252,241,493,,,,,,,
100024661,2018-08-01 14:00,1.0,,,,321,231,552,,,,,,,
100024661,2018-08-01 15:00,1.0,,,,309,275,584,,,,,,,
100024661,2018-08-01 16:00,1.0,,,,429,370,799,,,,,,,
100024661,2018-08-01 17:00,1.0,,,,668,480,1148,,,,,,,
100024661,2018-08-01 18:00,1.0,,,,708,611,1319,,,,,,,
100024661,2018-08-01 19:00,1.0,,,,492,504,996,,,,,,,
100024661,2018-08-01 20:00,1.0,,,,293,355,648,,,,,,,
100024661,2018-08-01 21:00,1.0,,,,263,231,494,,,,,,,
100024661,2018-08-01 22:00,1.0,,,,215,183,398,,,,,,,
100024661,2018-08-01 23:00,1.0,,,,167,155,322,,,,,,,
100024661,2018-08-02 00:00,1.0,,,,102,115,217,,,,,,,
100024661,2018-08-02 01:00,1.0,,,,47,71,118,,,,,,,
100024661,2018-08-02 02:00,1.0,,,,34,27,61,,,,,,,
100024661,2018-08-02 03:00,1.0,,,,16,9,25,,,,,,,
100024661,2018-08-02 04:00,1.0,,,,11,14,25,,,,,,,
100024661,2018-08-02 05:00,1.0,,,,18,29,47,,,,,,,
100024661,2018-08-02 06:00,1.0,,,,58,135,193,,,,,,,
100024661,2018-08-02 07:00,1.0,,,,184,328,512,,,,,,,
100024661,2018-08-02 08:00,1.0,,,,428,737,1165,,,,,,,
100024661,2018-08-02 09:00,1.0,,,,525,683,1208,,,,,,,
100024661,2018-08-02 10:00,1.0,,,,269,293,562,,,,,,,
100024661,2018-08-02 11:00,1.0,,,,210,224,434,,,,,,,
100024661,2018-08-02 12:00,1.0,,,,234,219,453,,,,,,,
100024661,2018-08-02 13:00,1.0,,,,250,218,468,,,,,,,
100024661,2018-08-02 14:00,1.0,,,,291,278,569,,,,,,,
100024661,2018-08-02 15:00,1.0,,,,328,297,625,,,,,,,
100024661,2018-08-02 16:00,1.0,,,,466,346,812,,,,,,,
100024661,2018-08-02 17:00,1.0,,,,574,449,1023,,,,,,,
100024661,2018-08-02 18:00,1.0,,,,745,594,1339,,,,,,,
100024661,2018-08-02 19:00,1.0,,,,525,461,986,,,,,,,
100024661,2018-08-02 20:00,1.0,,,,295,366,661,,,,,,,
100024661,2018-08-02 21:00,1.0,,,,210,248,458,,,,,,,
100024661,2018-08-02 22:00,1.0,,,,209,217,426,,,,,,,
100024661,2018-08-02 23:00,1.0,,,,166,174,340,,,,,,,
100024661,2018-08-03 00:00,1.0,,,,110,109,219,,,,,,,
100024661,2018-08-03 01:00,1.0,,,,56,41,97,,,,,,,
100024661,2018-08-03 02:00,1.0,,,,26,26,52,,,,,,,
100024661,2018-08-03 03:00,1.0,,,,17,12,29,,,,,,,
100024661,2018-08-03 04:00,1.0,,,,20,16,36,,,,,,,
100024661,2018-08-03 05:00,1.0,,,,15,34,49,,,,,,,
100024661,2018-08-03 06:00,1.0,,,,53,113,166,,,,,,,
100024661,2018-08-03 07:00,1.0,,,,150,299,449,,,,,,,
100024661,2018-08-03 08:00,1.0,,,,367,588,955,,,,,,,
100024661,2018-08-03 09:00,1.0,,,,464,602,1066,,,,,,,
100024661,2018-08-03 10:00,1.0,,,,246,256,502,,,,,,,
100024661,2018-08-03 11:00,1.0,,,,189,229,418,,,,,,,
100024661,2018-08-03 12:00,1.0,,,,240,223,463,,,,,,,
100024661,2018-08-03 13:00,1.0,,,,274,264,538,,,,,,,
100024661,2018-08-03 14:00,1.0,,,,305,228,533,,,,,,,
100024661,2018-08-03 15:00,1.0,,,,375,286,661,,,,,,,
100024661,2018-08-03 16:00,1.0,,,,478,340,818,,,,,,,
100024661,2018-08-03 17:00,1.0,,,,487,433,920,,,,,,,
100024661,2018-08-03 18:00,1.0,,,,532,454,986,,,,,,,
100024661,2018-08-03 19:00,1.0,,,,397,397,794,,,,,,,
100024661,2018-08-03 20:00,1.0,,,,274,290,564,,,,,,,
100024661,2018-08-03 21:00,1.0,,,,207,208,415,,,,,,,
100024661,2018-08-03 22:00,1.0,,,,176,185,361,,,,,,,
100024661,2018-08-03 23:00,1.0,,,,166,145,311,,,,,,,
100024661,2018-08-04 00:00,1.0,,,,155,146,301,,,,,,,
100024661,2018-08-04 01:00,1.0,,,,104,84,188,,,,,,,
100024661,2018-08-04 02:00,1.0,,,,80,55,135,,,,,,,
100024661,2018-08-04 03:00,1.0,,,,40,29,69,,,,,,,
100024661,2018-08-04 04:00,1.0,,,,36,13,49,,,,,,,
100024661,2018-08-04 05:00,1.0,,,,24,14,38,,,,,,,
100024661,2018-08-04 06:00,1.0,,,,21,22,43,,,,,,,
100024661,2018-08-04 07:00,1.0,,,,47,26,73,,,,,,,
100024661,2018-08-04 08:00,1.0,,,,61,55,116,,,,,,,
100024661,2018-08-04 09:00,1.0,,,,135,108,243,,,,,,,
100024661,2018-08-04 10:00,1.0,,,,147,113,260,,,,,,,
100024661,2018-08-04 11:00,1.0,,,,190,161,351,,,,,,,
100024661,2018-08-04 12:00,1.0,,,,163,143,306,,,,,,,
100024661,2018-08-04 13:00,1.0,,,,225,211,436,,,,,,,
100024661,2018-08-04 14:00,1.0,,,,222,229,451,,,,,,,
100024661,2018-08-04 15:00,1.0,,,,215,202,417,,,,,,,
100024661,2018-08-04 16:00,1.0,,,,185,195,380,,,,,,,
100024661,2018-08-04 17:00,1.0,,,,222,247,469,,,,,,,
100024661,2018-08-04 18:00,1.0,,,,218,256,474,,,,,,,
100024661,2018-08-04 19:00,1.0,,,,206,259,465,,,,,,,
100024661,2018-08-04 20:00,1.0,,,,199,281,480,,,,,,,
100024661,2018-08-04 21:00,1.0,,,,135,165,300,,,,,,,
100024661,2018-08-04 22:00,1.0,,,,120,180,300,,,,,,,
100024661,2018-08-04 23:00,1.0,,,,132,118,250,,,,,,,
100024661,2018-08-05 00:00,1.0,,,,118,145,263,,,,,,,
100024661,2018-08-05 01:00,1.0,,,,119,103,222,,,,,,,
100024661,2018-08-05 02:00,1.0,,,,85,37,122,,,,,,,
100024661,2018-08-05 03:00,1.0,,,,42,41,83,,,,,,,
100024661,2018-08-05 04:00,1.0,,,,33,19,52,,,,,,,
100024661,2018-08-05 05:00,1.0,,,,27,14,41,,,,,,,
100024661,2018-08-05 06:00,1.0,,,,26,19,45,,,,,,,
100024661,2018-08-05 07:00,1.0,,,,41,30,71,,,,,,,
100024661,2018-08-05 08:00,1.0,,,,53,49,102,,,,,,,
100024661,2018-08-05 09:00,1.0,,,,79,58,137,,,,,,,
100024661,2018-08-05 10:00,1.0,,,,114,115,229,,,,,,,
100024661,2018-08-05 11:00,1.0,,,,127,121,248,,,,,,,
100024661,2018-08-05 12:00,1.0,,,,143,118,261,,,,,,,
100024661,2018-08-05 13:00,1.0,,,,169,178,347,,,,,,,
100024661,2018-08-05 14:00,1.0,,,,196,173,369,,,,,,,
100024661,2018-08-05 15:00,1.0,,,,184,161,345,,,,,,,
100024661,2018-08-05 16:00,1.0,,,,220,165,385,,,,,,,
100024661,2018-08-05 17:00,1.0,,,,188,207,395,,,,,,,
100024661,2018-08-05 18:00,1.0,,,,198,195,393,,,,,,,
100024661,2018-08-05 19:00,1.0,,,,138,198,336,,,,,,,
100024661,2018-08-05 20:00,1.0,,,,132,169,301,,,,,,,
100024661,2018-08-05 21:00,1.0,,,,116,129,245,,,,,,,
100024661,2018-08-05 22:00,1.0,,,,90,102,192,,,,,,,
100024661,2018-08-05 23:00,1.0,,,,77,80,157,,,,,,,
100024661,2018-08-06 00:00,1.0,,,,36,62,98,,,,,,,
100024661,2018-08-06 01:00,1.0,,,,29,27,56,,,,,,,
100024661,2018-08-06 02:00,1.0,,,,9,18,27,,,,,,,
100024661,2018-08-06 03:00,1.0,,,,9,10,19,,,,,,,
100024661,2018-08-06 04:00,1.0,,,,8,14,22,,,,,,,
100024661,2018-08-06 05:00,1.0,,,,11,42,53,,,,,,,
100024661,2018-08-06 06:00,1.0,,,,52,139,191,,,,,,,
100024661,2018-08-06 07:00,1.0,,,,185,313,498,,,,,,,
100024661,2018-08-06 08:00,1.0,,,,466,791,1257,,,,,,,
100024661,2018-08-06 09:00,1.0,,,,514,736,1250,,,,,,,
100024661,2018-08-06 10:00,1.0,,,,262,259,521,,,,,,,
100024661,2018-08-06 11:00,1.0,,,,210,199,409,,,,,,,
100024661,2018-08-06 12:00,1.0,,,,214,197,411,,,,,,,
100024661,2018-08-06 13:00,1.0,,,,224,215,439,,,,,,,
100024661,2018-08-06 14:00,1.0,,,,299,240,539,,,,,,,
100024661,2018-08-06 15:00,1.0,,,,325,300,625,,,,,,,
100024661,2018-08-06 16:00,1.0,,,,430,333,763,,,,,,,
100024661,2018-08-06 17:00,1.0,,,,672,433,1105,,,,,,,
100024661,2018-08-06 18:00,1.0,,,,758,650,1408,,,,,,,
100024661,2018-08-06 19:00,1.0,,,,513,481,994,,,,,,,
100024661,2018-08-06 20:00,1.0,,,,339,359,698,,,,,,,
100024661,2018-08-06 21:00,1.0,,,,191,227,418,,,,,,,
100024661,2018-08-06 22:00,1.0,,,,159,135,294,,,,,,,
100024661,2018-08-06 23:00,1.0,,,,124,143,267,,,,,,,
100024661,2018-08-07 00:00,1.0,,,,80,97,177,,,,,,,
100024661,2018-08-07 01:00,1.0,,,,35,30,65,,,,,,,
100024661,2018-08-07 02:00,1.0,,,,30,24,54,,,,,,,
100024661,2018-08-07 03:00,1.0,,,,24,10,34,,,,,,,
100024661,2018-08-07 04:00,1.0,,,,10,13,23,,,,,,,
100024661,2018-08-07 05:00,1.0,,,,33,48,81,,,,,,,
100024661,2018-08-07 06:00,1.0,,,,54,159,213,,,,,,,
100024661,2018-08-07 07:00,1.0,,,,192,384,576,,,,,,,
100024661,2018-08-07 08:00,1.0,,,,512,820,1332,,,,,,,
100024661,2018-08-07 09:00,1.0,,,,567,701,1268,,,,,,,
100024661,2018-08-07 10:00,1.0,,,,257,285,542,,,,,,,
100024661,2018-08-07 11:00,1.0,,,,226,195,421,,,,,,,
100024661,2018-08-07 12:00,1.0,,,,204,235,439,,,,,,,
100024661,2018-08-07 13:00,1.0,,,,219,232,451,,,,,,,
100024661,2018-08-07 14:00,1.0,,,,306,244,550,,,,,,,
100024661,2018-08-07 15:00,1.0,,,,354,301,655,,,,,,,
100024661,2018-08-07 16:00,1.0,,,,454,352,806,,,,,,,
100024661,2018-08-07 17:00,1.0,,,,669,448,1117,,,,,,,
100024661,2018-08-07 18:00,1.0,,,,724,645,1369,,,,,,,
100024661,2018-08-07 19:00,1.0,,,,531,488,1019,,,,,,,
100024661,2018-08-07 20:00,1.0,,,,313,333,646,,,,,,,
100024661,2018-08-07 21:00,1.0,,,,194,210,404,,,,,,,
100024661,2018-08-07 22:00,1.0,,,,238,203,441,,,,,,,
100024661,2018-08-07 23:00,1.0,,,,153,180,333,,,,,,,
100024661,2018-08-08 00:00,1.0,,,,84,90,174,,,,,,,
100024661,2018-08-08 01:00,1.0,,,,52,29,81,,,,,,,
100024661,2018-08-08 02:00,1.0,,,,27,20,47,,,,,,,
100024661,2018-08-08 03:00,1.0,,,,12,17,29,,,,,,,
100024661,2018-08-08 04:00,1.0,,,,9,15,24,,,,,,,
100024661,2018-08-08 05:00,1.0,,,,22,46,68,,,,,,,
100024661,2018-08-08 06:00,1.0,,,,59,150,209,,,,,,,
100024661,2018-08-08 07:00,1.0,,,,180,350,530,,,,,,,
100024661,2018-08-08 08:00,1.0,,,,517,761,1278,,,,,,,
100024661,2018-08-08 09:00,1.0,,,,508,666,1174,,,,,,,
100024661,2018-08-08 10:00,1.0,,,,235,284,519,,,,,,,
100024661,2018-08-08 11:00,1.0,,,,223,168,391,,,,,,,
100024661,2018-08-08 12:00,1.0,,,,229,215,444,,,,,,,
100024661,2018-08-08 13:00,1.0,,,,206,198,404,,,,,,,
100024661,2018-08-08 14:00,1.0,,,,269,212,481,,,,,,,
100024661,2018-08-08 15:00,1.0,,,,340,245,585,,,,,,,
100024661,2018-08-08 16:00,1.0,,,,471,325,796,,,,,,,
100024661,2018-08-08 17:00,1.0,,,,577,464,1041,,,,,,,
100024661,2018-08-08 18:00,1.0,,,,631,591,1222,,,,,,,
100024661,2018-08-08 19:00,1.0,,,,403,444,847,,,,,,,
100024661,2018-08-08 20:00,1.0,,,,305,354,659,,,,,,,
100024661,2018-08-08 21:00,1.0,,,,221,233,454,,,,,,,
100024661,2018-08-08 22:00,1.0,,,,185,186,371,,,,,,,
100024661,2018-08-08 23:00,1.0,,,,150,116,266,,,,,,,
100024661,2018-08-09 00:00,1.0,,,,74,97,171,,,,,,,
100024661,2018-08-09 01:00,1.0,,,,44,43,87,,,,,,,
100024661,2018-08-09 02:00,1.0,,,,31,25,56,,,,,,,
100024661,2018-08-09 03:00,1.0,,,,19,10,29,,,,,,,
100024661,2018-08-09 04:00,1.0,,,,18,18,36,,,,,,,
100024661,2018-08-09 05:00,1.0,,,,22,41,63,,,,,,,
100024661,2018-08-09 06:00,1.0,,,,68,119,187,,,,,,,
100024661,2018-08-09 07:00,1.0,,,,177,353,530,,,,,,,
100024661,2018-08-09 08:00,1.0,,,,471,784,1255,,,,,,,
100024661,2018-08-09 09:00,1.0,,,,540,665,1205,,,,,,,
100024661,2018-08-09 10:00,1.0,,,,259,298,557,,,,,,,
100024661,2018-08-09 11:00,1.0,,,,196,187,383,,,,,,,
100024661,2018-08-09 12:00,1.0,,,,231,220,451,,,,,,,
100024661,2018-08-09 13:00,1.0,,,,224,255,479,,,,,,,
100024661,2018-08-09 14:00,1.0,,,,296,234,530,,,,,,,
100024661,2018-08-09 15:00,1.0,,,,358,330,688,,,,,,,
100024661,2018-08-09 16:00,1.0,,,,459,349,808,,,,,,,
100024661,2018-08-09 17:00,1.0,,,,638,477,1115,,,,,,,
100024661,2018-08-09 18:00,1.0,,,,693,648,1341,,,,,,,
100024661,2018-08-09 19:00,1.0,,,,484,485,969,,,,,,,
100024661,2018-08-09 20:00,1.0,,,,286,346,632,,,,,,,
100024661,2018-08-09 21:00,1.0,,,,212,225,437,,,,,,,
100024661,2018-08-09 22:00,1.0,,,,210,165,375,,,,,,,
100024661,2018-08-09 23:00,1.0,,,,122,82,204,,,,,,,
100024661,2018-08-10 00:00,1.0,,,,131,103,234,,,,,,,
100024661,2018-08-10 01:00,1.0,,,,52,48,100,,,,,,,
100024661,2018-08-10 02:00,1.0,,,,46,28,74,,,,,,,
100024661,2018-08-10 03:00,1.0,,,,27,9,36,,,,,,,
100024661,2018-08-10 04:00,1.0,,,,21,17,38,,,,,,,
100024661,2018-08-10 05:00,1.0,,,,30,35,65,,,,,,,
100024661,2018-08-10 06:00,1.0,,,,49,111,160,,,,,,,
100024661,2018-08-10 07:00,1.0,,,,141,278,419,,,,,,,
100024661,2018-08-10 08:00,1.0,,,,359,634,993,,,,,,,
100024661,2018-08-10 09:00,1.0,,,,419,541,960,,,,,,,
100024661,2018-08-10 10:00,1.0,,,,241,244,485,,,,,,,
100024661,2018-08-10 11:00,1.0,,,,197,189,386,,,,,,,
100024661,2018-08-10 12:00,1.0,,,,236,220,456,,,,,,,
100024661,2018-08-10 13:00,1.0,,,,254,254,508,,,,,,,
100024661,2018-08-10 14:00,1.0,,,,343,256,599,,,,,,,
100024661,2018-08-10 15:00,1.0,,,,403,288,691,,,,,,,
100024661,2018-08-10 16:00,1.0,,,,495,331,826,,,,,,,
100024661,2018-08-10 17:00,1.0,,,,560,435,995,,,,,,,
100024661,2018-08-10 18:00,1.0,,,,580,528,1108,,,,,,,
100024661,2018-08-10 19:00,1.0,,,,413,461,874,,,,,,,
100024661,2018-08-10 20:00,1.0,,,,287,373,660,,,,,,,
100024661,2018-08-10 21:00,1.0,,,,188,232,420,,,,,,,
100024661,2018-08-10 22:00,1.0,,,,183,158,341,,,,,,,
100024661,2018-08-10 23:00,1.0,,,,147,157,304,,,,,,,
100024661,2018-08-11 00:00,1.0,,,,117,149,266,,,,,,,
100024661,2018-08-11 01:00,1.0,,,,113,99,212,,,,,,,
100024661,2018-08-11 02:00,1.0,,,,63,58,121,,,,,,,
100024661,2018-08-11 03:00,1.0,,,,63,39,102,,,,,,,
100024661,2018-08-11 04:00,1.0,,,,37,22,59,,,,,,,
100024661,2018-08-11 05:00,1.0,,,,20,13,33,,,,,,,
100024661,2018-08-11 06:00,1.0,,,,27,27,54,,,,,,,
100024661,2018-08-11 07:00,1.0,,,,36,26,62,,,,,,,
100024661,2018-08-11 08:00,1.0,,,,68,49,117,,,,,,,
100024661,2018-08-11 09:00,1.0,,,,117,67,184,,,,,,,
100024661,2018-08-11 10:00,1.0,,,,153,135,288,,,,,,,
100024661,2018-08-11 11:00,1.0,,,,156,175,331,,,,,,,
100024661,2018-08-11 12:00,1.0,,,,198,149,347,,,,,,,
100024661,2018-08-11 13:00,1.0,,,,226,241,467,,,,,,,
100024661,2018-08-11 14:00,1.0,,,,236,281,517,,,,,,,
100024661,2018-08-11 15:00,1.0,,,,258,280,538,,,,,,,
100024661,2018-08-11 16:00,1.0,,,,271,263,534,,,,,,,
100024661,2018-08-11 17:00,1.0,,,,257,290,547,,,,,,,
100024661,2018-08-11 18:00,1.0,,,,279,310,589,,,,,,,
100024661,2018-08-11 19:00,1.0,,,,221,316,537,,,,,,,
100024661,2018-08-11 20:00,1.0,,,,154,293,447,,,,,,,
100024661,2018-08-11 21:00,1.0,,,,139,192,331,,,,,,,
100024661,2018-08-11 22:00,1.0,,,,107,124,231,,,,,,,
100024661,2018-08-11 23:00,1.0,,,,119,109,228,,,,,,,
100024661,2018-08-12 00:00,1.0,,,,117,93,210,,,,,,,
100024661,2018-08-12 01:00,1.0,,,,90,74,164,,,,,,,
100024661,2018-08-12 02:00,1.0,,,,72,51,123,,,,,,,
100024661,2018-08-12 03:00,1.0,,,,47,30,77,,,,,,,
100024661,2018-08-12 04:00,1.0,,,,32,31,63,,,,,,,
100024661,2018-08-12 05:00,1.0,,,,33,22,55,,,,,,,
100024661,2018-08-12 06:00,1.0,,,,25,18,43,,,,,,,
100024661,2018-08-12 07:00,1.0,,,,31,17,48,,,,,,,
100024661,2018-08-12 08:00,1.0,,,,43,36,79,,,,,,,
100024661,2018-08-12 09:00,1.0,,,,77,66,143,,,,,,,
100024661,2018-08-12 10:00,1.0,,,,108,96,204,,,,,,,
100024661,2018-08-12 11:00,1.0,,,,131,134,265,,,,,,,
100024661,2018-08-12 12:00,1.0,,,,222,212,434,,,,,,,
100024661,2018-08-12 13:00,1.0,,,,213,187,400,,,,,,,
100024661,2018-08-12 14:00,1.0,,,,235,234,469,,,,,,,
100024661,2018-08-12 15:00,1.0,,,,248,267,515,,,,,,,
100024661,2018-08-12 16:00,1.0,,,,265,254,519,,,,,,,
100024661,2018-08-12 17:00,1.0,,,,247,267,514,,,,,,,
100024661,2018-08-12 18:00,1.0,,,,270,257,527,,,,,,,
100024661,2018-08-12 19:00,1.0,,,,245,238,483,,,,,,,
100024661,2018-08-12 20:00,1.0,,,,182,205,387,,,,,,,
100024661,2018-08-12 21:00,1.0,,,,142,167,309,,,,,,,
100024661,2018-08-12 22:00,1.0,,,,89,126,215,,,,,,,
100024661,2018-08-12 23:00,1.0,,,,91,96,187,,,,,,,
100024661,2018-08-13 00:00,1.0,,,,33,58,91,,,,,,,
100024661,2018-08-13 01:00,1.0,,,,43,43,86,,,,,,,
100024661,2018-08-13 02:00,1.0,,,,26,10,36,,,,,,,
100024661,2018-08-13 03:00,1.0,,,,24,6,30,,,,,,,
100024661,2018-08-13 04:00,1.0,,,,8,15,23,,,,,,,
100024661,2018-08-13 05:00,1.0,,,,16,33,49,,,,,,,
100024661,2018-08-13 06:00,1.0,,,,51,124,175,,,,,,,
100024661,2018-08-13 07:00,1.0,,,,168,330,498,,,,,,,
100024661,2018-08-13 08:00,1.0,,,,488,855,1343,,,,,,,
100024661,2018-08-13 09:00,1.0,,,,556,773,1329,,,,,,,
100024661,2018-08-13 10:00,1.0,,,,93,278,371,,,,,,,
100024661,2018-08-13 11:00,1.0,,,,212,203,415,,,,,,,
100024661,2018-08-13 12:00,1.0,,,,236,233,469,,,,,,,
100024661,2018-08-13 13:00,1.0,,,,263,216,479,,,,,,,
100024661,2018-08-13 14:00,1.0,,,,279,274,553,,,,,,,
100024661,2018-08-13 15:00,1.0,,,,340,250,590,,,,,,,
100024661,2018-08-13 16:00,1.0,,,,451,395,846,,,,,,,
100024661,2018-08-13 17:00,1.0,,,,686,513,1199,,,,,,,
100024661,2018-08-13 18:00,1.0,,,,763,621,1384,,,,,,,
100024661,2018-08-13 19:00,1.0,,,,467,410,877,,,,,,,
100024661,2018-08-13 20:00,1.0,,,,232,290,522,,,,,,,
100024661,2018-08-13 21:00,1.0,,,,177,169,346,,,,,,,
100024661,2018-08-13 22:00,1.0,,,,151,128,279,,,,,,,
100024661,2018-08-13 23:00,1.0,,,,105,101,206,,,,,,,
100024661,2018-08-14 00:00,1.0,,,,34,66,100,,,,,,,
100024661,2018-08-14 01:00,1.0,,,,30,36,66,,,,,,,
100024661,2018-08-14 02:00,1.0,,,,18,16,34,,,,,,,
100024661,2018-08-14 03:00,1.0,,,,10,8,18,,,,,,,
100024661,2018-08-14 04:00,1.0,,,,11,7,18,,,,,,,
100024661,2018-08-14 05:00,1.0,,,,22,35,57,,,,,,,
100024661,2018-08-14 06:00,1.0,,,,52,142,194,,,,,,,
100024661,2018-08-14 07:00,1.0,,,,169,357,526,,,,,,,
100024661,2018-08-14 08:00,1.0,,,,510,914,1424,,,,,,,
100024661,2018-08-14 09:00,1.0,,,,632,768,1400,,,,,,,
100024661,2018-08-14 10:00,1.0,,,,297,326,623,,,,,,,
100024661,2018-08-14 11:00,1.0,,,,239,218,457,,,,,,,
100024661,2018-08-14 12:00,1.0,,,,233,236,469,,,,,,,
100024661,2018-08-14 13:00,1.0,,,,279,300,579,,,,,,,
100024661,2018-08-14 14:00,1.0,,,,298,280,578,,,,,,,
100024661,2018-08-14 15:00,1.0,,,,404,301,705,,,,,,,
100024661,2018-08-14 16:00,1.0,,,,510,430,940,,,,,,,
100024661,2018-08-14 17:00,1.0,,,,661,508,1169,,,,,,,
100024661,2018-08-14 18:00,1.0,,,,874,733,1607,,,,,,,
100024661,2018-08-14 19:00,1.0,,,,518,521,1039,,,,,,,
100024661,2018-08-14 20:00,1.0,,,,330,339,669,,,,,,,
100024661,2018-08-14 21:00,1.0,,,,257,217,474,,,,,,,
100024661,2018-08-14 22:00,1.0,,,,184,169,353,,,,,,,
100024661,2018-08-14 23:00,1.0,,,,127,114,241,,,,,,,
100024661,2018-08-15 00:00,1.0,,,,67,68,135,,,,,,,
100024661,2018-08-15 01:00,1.0,,,,36,32,68,,,,,,,
100024661,2018-08-15 02:00,1.0,,,,26,15,41,,,,,,,
100024661,2018-08-15 03:00,1.0,,,,17,12,29,,,,,,,
100024661,2018-08-15 04:00,1.0,,,,7,11,18,,,,,,,
100024661,2018-08-15 05:00,1.0,,,,16,38,54,,,,,,,
100024661,2018-08-15 06:00,1.0,,,,46,146,192,,,,,,,
100024661,2018-08-15 07:00,1.0,,,,204,353,557,,,,,,,
100024661,2018-08-15 08:00,1.0,,,,516,891,1407,,,,,,,
100024661,2018-08-15 09:00,1.0,,,,609,782,1391,,,,,,,
100024661,2018-08-15 10:00,1.0,,,,270,353,623,,,,,,,
100024661,2018-08-15 11:00,1.0,,,,230,241,471,,,,,,,
100024661,2018-08-15 12:00,1.0,,,,247,235,482,,,,,,,
100024661,2018-08-15 13:00,1.0,,,,287,283,570,,,,,,,
100024661,2018-08-15 14:00,1.0,,,,292,282,574,,,,,,,
100024661,2018-08-15 15:00,1.0,,,,391,300,691,,,,,,,
100024661,2018-08-15 16:00,1.0,,,,535,364,899,,,,,,,
100024661,2018-08-15 17:00,1.0,,,,729,533,1262,,,,,,,
100024661,2018-08-15 18:00,1.0,,,,880,736,1616,,,,,,,
100024661,2018-08-15 19:00,1.0,,,,566,512,1078,,,,,,,
100024661,2018-08-15 20:00,1.0,,,,316,381,697,,,,,,,
100024661,2018-08-15 21:00,1.0,,,,226,279,505,,,,,,,
100024661,2018-08-15 22:00,1.0,,,,233,188,421,,,,,,,
100024661,2018-08-15 23:00,1.0,,,,182,170,352,,,,,,,
100024661,2018-08-16 00:00,1.0,,,,90,136,226,,,,,,,
100024661,2018-08-16 01:00,1.0,,,,47,78,125,,,,,,,
100024661,2018-08-16 02:00,1.0,,,,26,28,54,,,,,,,
100024661,2018-08-16 03:00,1.0,,,,19,9,28,,,,,,,
100024661,2018-08-16 04:00,1.0,,,,12,13,25,,,,,,,
100024661,2018-08-16 05:00,1.0,,,,17,32,49,,,,,,,
100024661,2018-08-16 06:00,1.0,,,,53,117,170,,,,,,,
100024661,2018-08-16 07:00,1.0,,,,190,366,556,,,,,,,
100024661,2018-08-16 08:00,1.0,,,,550,876,1426,,,,,,,
100024661,2018-08-16 09:00,1.0,,,,592,762,1354,,,,,,,
100024661,2018-08-16 10:00,1.0,,,,304,328,632,,,,,,,
100024661,2018-08-16 11:00,1.0,,,,233,234,467,,,,,,,
100024661,2018-08-16 12:00,1.0,,,,294,238,532,,,,,,,
100024661,2018-08-16 13:00,1.0,,,,252,292,544,,,,,,,
100024661,2018-08-16 14:00,1.0,,,,326,296,622,,,,,,,
100024661,2018-08-16 15:00,1.0,,,,369,351,720,,,,,,,
100024661,2018-08-16 16:00,1.0,,,,528,401,929,,,,,,,
100024661,2018-08-16 17:00,1.0,,,,637,514,1151,,,,,,,
100024661,2018-08-16 18:00,1.0,,,,845,762,1607,,,,,,,
100024661,2018-08-16 19:00,1.0,,,,568,561,1129,,,,,,,
100024661,2018-08-16 20:00,1.0,,,,343,373,716,,,,,,,
100024661,2018-08-16 21:00,1.0,,,,247,289,536,,,,,,,
100024661,2018-08-16 22:00,1.0,,,,245,215,460,,,,,,,
100024661,2018-08-16 23:00,1.0,,,,202,183,385,,,,,,,
100024661,2018-08-17 00:00,1.0,,,,130,137,267,,,,,,,
100024661,2018-08-17 01:00,1.0,,,,67,94,161,,,,,,,
100024661,2018-08-17 02:00,1.0,,,,31,31,62,,,,,,,
100024661,2018-08-17 03:00,1.0,,,,21,12,33,,,,,,,
100024661,2018-08-17 04:00,1.0,,,,12,14,26,,,,,,,
100024661,2018-08-17 05:00,1.0,,,,20,26,46,,,,,,,
100024661,2018-08-17 06:00,1.0,,,,37,112,149,,,,,,,
100024661,2018-08-17 07:00,1.0,,,,168,328,496,,,,,,,
100024661,2018-08-17 08:00,1.0,,,,401,671,1072,,,,,,,
100024661,2018-08-17 09:00,1.0,,,,483,656,1139,,,,,,,
100024661,2018-08-17 10:00,1.0,,,,261,296,557,,,,,,,
100024661,2018-08-17 11:00,1.0,,,,240,254,494,,,,,,,
100024661,2018-08-17 12:00,1.0,,,,247,237,484,,,,,,,
100024661,2018-08-17 13:00,1.0,,,,293,244,537,,,,,,,
100024661,2018-08-17 14:00,1.0,,,,373,324,697,,,,,,,
100024661,2018-08-17 15:00,1.0,,,,434,348,782,,,,,,,
100024661,2018-08-17 16:00,1.0,,,,459,394,853,,,,,,,
100024661,2018-08-17 17:00,1.0,,,,555,442,997,,,,,,,
100024661,2018-08-17 18:00,1.0,,,,571,528,1099,,,,,,,
100024661,2018-08-17 19:00,1.0,,,,401,495,896,,,,,,,
100024661,2018-08-17 20:00,1.0,,,,295,384,679,,,,,,,
100024661,2018-08-17 21:00,1.0,,,,219,192,411,,,,,,,
100024661,2018-08-17 22:00,1.0,,,,186,184,370,,,,,,,
100024661,2018-08-17 23:00,1.0,,,,182,165,347,,,,,,,
100024661,2018-08-18 00:00,1.0,,,,138,112,250,,,,,,,
100024661,2018-08-18 01:00,1.0,,,,90,128,218,,,,,,,
100024661,2018-08-18 02:00,1.0,,,,79,68,147,,,,,,,
100024661,2018-08-18 03:00,1.0,,,,46,29,75,,,,,,,
100024661,2018-08-18 04:00,1.0,,,,31,25,56,,,,,,,
100024661,2018-08-18 05:00,1.0,,,,17,16,33,,,,,,,
100024661,2018-08-18 06:00,1.0,,,,40,22,62,,,,,,,
100024661,2018-08-18 07:00,1.0,,,,40,27,67,,,,,,,
100024661,2018-08-18 08:00,1.0,,,,84,46,130,,,,,,,
100024661,2018-08-18 09:00,1.0,,,,121,85,206,,,,,,,
100024661,2018-08-18 10:00,1.0,,,,165,158,323,,,,,,,
100024661,2018-08-18 11:00,1.0,,,,171,132,303,,,,,,,
100024661,2018-08-18 12:00,1.0,,,,242,213,455,,,,,,,
100024661,2018-08-18 13:00,1.0,,,,256,266,522,,,,,,,
100024661,2018-08-18 14:00,1.0,,,,289,271,560,,,,,,,
100024661,2018-08-18 15:00,1.0,,,,222,323,545,,,,,,,
100024661,2018-08-18 16:00,1.0,,,,251,284,535,,,,,,,
100024661,2018-08-18 17:00,1.0,,,,255,279,534,,,,,,,
100024661,2018-08-18 18:00,1.0,,,,270,285,555,,,,,,,
100024661,2018-08-18 19:00,1.0,,,,247,326,573,,,,,,,
100024661,2018-08-18 20:00,1.0,,,,171,235,406,,,,,,,
100024661,2018-08-18 21:00,1.0,,,,134,180,314,,,,,,,
100024661,2018-08-18 22:00,1.0,,,,118,151,269,,,,,,,
100024661,2018-08-18 23:00,1.0,,,,121,136,257,,,,,,,
100024661,2018-08-19 00:00,1.0,,,,119,109,228,,,,,,,
100024661,2018-08-19 01:00,1.0,,,,111,77,188,,,,,,,
100024661,2018-08-19 02:00,1.0,,,,62,56,118,,,,,,,
100024661,2018-08-19 03:00,1.0,,,,51,30,81,,,,,,,
100024661,2018-08-19 04:00,1.0,,,,35,23,58,,,,,,,
100024661,2018-08-19 05:00,1.0,,,,19,13,32,,,,,,,
100024661,2018-08-19 06:00,1.0,,,,27,23,50,,,,,,,
100024661,2018-08-19 07:00,1.0,,,,31,26,57,,,,,,,
100024661,2018-08-19 08:00,1.0,,,,49,45,94,,,,,,,
100024661,2018-08-19 09:00,1.0,,,,68,74,142,,,,,,,
100024661,2018-08-19 10:00,1.0,,,,136,108,244,,,,,,,
100024661,2018-08-19 11:00,1.0,,,,133,133,266,,,,,,,
100024661,2018-08-19 12:00,1.0,,,,167,167,334,,,,,,,